Location: Unspecified
(33.9360°N, 83.4200°W)
Time: 02:46:40
(UTC-05:00)

Daily predictions for brighter satellites

Satellite Brightness Start Highest point End
(mag) Time Altitude Azimuth Time Altitude Azimuth Time Altitude Azimuth
Atlas Centaur 2 3.9 04:03:41 36° SE 04:03:41 36° SE 04:08:39 10° ESE
ATLAS 5 CENTAUR R/B 3.6 04:31:25 26° ENE 04:31:25 26° ENE 04:33:55 10° NE
Cosmos 1725 Rocket 4.5 04:34:44 51° SSE 04:34:44 51° SSE 04:39:18 10° SSE
Hubble Space Telescope 2.7 04:57:36 24° SSE 04:57:36 24° SSE 04:59:43 10° SE
IRS-1C Rocket 4.0 04:55:47 10° NNE 05:01:04 85° ESE 05:06:19 10° SSW
USA 32 4.4 04:59:34 10° S 05:08:15 22° N 05:10:02 10° N
NOSS 3-1 (C) 4.2 05:08:24 27° NNW 05:13:12 79° ENE 05:21:47 10° SSE
Cosmos 1606 3.1 05:18:20 52° NE 05:18:56 60° E 05:22:44 10° SSE
Cosmos 1603 4.2 05:21:24 39° NNW 05:21:24 39° NNW 05:25:32 10° N
CZ-2C R/B 3.6 05:24:18 10° SSE 05:28:46 86° ENE 05:31:16 26° N
DELTA 2 R/B (1) 3.5 05:32:55 44° WNW 05:34:42 76° SSW 05:40:16 10° ESE
USA 229 DEB 4.3 05:34:32 34° W 05:36:14 38° WSW 05:42:54 10° S
USA 229 4.3 05:34:35 34° W 05:36:20 39° WSW 05:43:01 10° S
Shenzhou-11 Module 3.3 05:36:30 32° S 05:37:06 36° SE 05:39:55 10° ENE
Cosmos 2233 Rocket 4.0 05:33:28 15° NNW 05:38:23 51° W 05:44:16 10° SSW
Cosmos 2369 Rocket 2.5 05:33:34 12° NNW 05:38:44 66° ENE 05:44:17 10° SSE
Lacrosse 4 Rocket 1.9 05:35:27 10° SSW 05:39:47 63° ESE 05:44:02 10° NNE
NOSS 3-1 (A) 4.1 05:33:22 16° NNW 05:40:00 85° ENE 05:48:35 10° SSE
CZ-4B R/B 3.8 05:35:20 10° N 05:40:25 35° WNW 05:40:47 35° WNW
Intercosmos 25 3.6 05:38:43 19° N 05:41:32 87° W 05:47:19 10° S
Tiangong 2 4.1 05:40:48 10° S 05:42:39 14° SE 05:44:29 10° ESE
Meteor 1-10 Rocket 4.3 05:38:08 10° N 05:44:06 85° W 05:50:00 10° S
Cosmos 1703 Rocket 3.6 05:43:47 33° NW 05:45:26 53° W 05:49:37 10° S
Cosmos 1869 Rocket 3.6 05:41:43 10° SSW 05:45:57 50° W 05:50:15 10° N
Cosmos 968 Rocket 3.6 05:44:14 26° NW 05:47:02 55° WSW 05:52:08 10° S
Atlas Centaur 2 4.1 05:46:19 19° WSW 05:50:13 28° SSW 05:57:02 10° SSE
Meteor 1-28 Rocket 3.4 05:47:10 10° S 05:50:46 45° W 05:51:34 39° WNW
Cosmos 2221 Rocket 3.5 05:47:09 10° N 05:51:38 78° W 05:56:09 10° S
Aureole 3 3.6 05:49:20 10° S 05:52:16 47° E 05:55:08 10° NNE
PAYLOAD A 4.2 05:47:55 10° NNE 05:53:17 82° ESE 05:58:42 10° S
Cosmos 405 Rocket 2.5 05:53:27 15° NNW 05:56:26 71° W 06:00:12 10° S
NOAA 6 3.9 05:52:21 10° N 05:57:25 64° WNW 06:02:28 10° SSW
Okean-O 2.6 05:56:30 10° N 06:00:51 57° WNW 06:05:12 10° SSW
Cosmos 1943 Rocket 2.6 05:55:58 10° NNW 06:01:37 64° ENE 06:07:12 10° SSE
Landsat 4 4.2 06:00:33 10° SSW 06:04:00 37° W 06:05:51 22° NW
Cosmos 1782 3.5 06:04:11 25° NW 06:05:32 31° W 06:09:01 10° SSW
COSMO-SKYMED 1 2.5 06:01:48 10° S 06:06:07 71° WSW 06:10:26 10° NNW
Cosmos 332 Rocket 4.5 06:03:10 10° S 06:07:50 57° ESE 06:12:32 10° NNE
Cosmos 1513 Rocket 4.4 06:02:35 10° N 06:08:39 83° W 06:14:42 10° S
ATLAS 5 CENTAUR R/B 2.9 06:13:03 19° WNW 06:14:19 21° NW 06:18:04 10° N
EO 1 Del DPAF 3.4 06:10:38 10° S 06:14:21 51° W 06:18:06 10° NNW
Thor Agena Rocket 4.4 06:14:26 10° SSE 06:19:20 51° ENE 06:24:13 10° N
Cosmos 1943 4.0 06:15:13 10° WSW 06:20:02 28° WNW 06:24:52 10° N
Cosmos 1891 Rocket 4.5 06:17:16 10° NNW 06:23:16 63° W 06:29:19 10° S
SJ-12 3.9 06:21:08 10° NNE 06:25:15 88° E 06:29:19 10° SSW
NOSS 2-1 (E) 3.8 06:22:43 10° SSW 06:26:23 60° ESE 06:30:13 10° NE
Okean 1-7 4.1 06:23:52 10° NW 06:27:24 24° W 06:30:53 10° SW
IDEFIX/ARIANE 42P 2.9 06:30:48 10° N 06:35:37 40° WNW 06:40:25 10° SW
Hubble Space Telescope 3.0 06:34:14 10° WSW 06:36:44 16° SSW 06:39:14 10° SSE
CZ-2C R/B 2.6 06:32:28 10° N 06:37:25 51° WNW 06:42:12 10° SSW
GPS 2-04 Rocket1 4.4 06:37:50 10° SW 06:41:27 32° SSE 06:44:56 10° E
Cosmos 2034 Rocket 4.3 06:41:10 10° NNW 06:47:03 46° W 06:52:52 10° SSW
Cosmos 1733 Rocket 3.7 06:46:01 10° SW 06:49:57 34° W 06:53:55 10° NNW
AQUARIUS 4.4 06:46:03 10° NNE 06:50:34 77° ESE 06:55:03 10° S
Cosmos 1908 Rocket 3.6 06:46:49 10° S 06:51:15 88° W 06:55:40 10° N
